ORBCOMM FM 23

Satellite information

Favourite Embed

Satellite Type and Status

PAYLOADIN ORBIT

Key statistics

Satellite ORBCOMM FM 23 at a glance.

Uptime

9782

Days in orbit

Revolutions

≈ 14.4

Per day

Orbit

LEO

Low Earth Orbit

Inclination

45.0

Latest

Satellite identification and parameters

Extended collection of information and parameters for ORBCOMM FM 23.

Object identification

Identified? True

Debris? False

Object name: ORBCOMM FM 23

International designator: 1998-053C

Object number (NORAD): 25477

Object ID (CCSDS): 25477

Country: ORBITAL TELECOMMUNICATIONS SATELLITE (GLOBALSTAR) (ORB)

Current information (Y/N): Y

RCS size: MEDIUM

Orbital parameters

Period: 100.17 minutes

Inclination: 45.0064 deg

SMA: 7144.716 km

Apoapsis: 769.982 km

Periapsis: 763.18 km

RAAN: 190.1019 deg

Eccentricy: 0.000476

Argument of periapsis: 293.1145 deg

Mean anomaly: 66.9201 deg

Mean motion: 14.37557708 rev/day

Mean motion (dot): 0.00000518 rev/day2

B* drag term: 0.00021807 1/REarth

Two-line elements (TLE)

Creation date: July 4, 2025, 6:39 p.m.

Reference frame: TEME

Reference center: EARTH

Epoch: July 4, 2025, 9:28 a.m. UTC

TLE line 0: 0 ORBCOMM FM 23

TLE line 1: 1 25477U 98053C 25185.39489234 .00000518 00000-0 21807-3 0 9998

TLE line 2: 2 25477 45.0064 190.1019 0004760 293.1145 66.9201 14.37557708399876

Live tracking on map

Real-time ground track for satellite ORBCOMM FM 23.

In-orbit conjunctions

There are no conjunctions computed for ORBCOMM FM 23, at the moment. Check back to stay up to date, as we update our databases every day.

Go to all conjunctions

Associated space launch

ORBCOMM FM 23 was lifted into orbit during the mission ‘Pegasus XL HAPS | Orbcomm-C1 - C8’, on board a Pegasus XL HAPS space rocket.

The launch took place on Sept. 23, 1998, 5:06 a.m. from Wallops Flight Facility.

For more information about the launch, click the button.

Launch to space Pegasus XL HAPS | Orbcomm-C1 - C8
Pegasus XL HAPS | Orbcomm-C1 - C8

Agency: N/A

Status: Launch Successful

Launch date: Sept. 23, 1998, 5:06 a.m. UTC

Rocket: Pegasus XL HAPS

Launch pad: Wallops Flight Facility

Location: Air launch to orbit

...

Latest news about this satellite

There are no fresh news available about this satellite. Check back as we update our databases every day.


Newsletter sign-up

Weekly statistics, charts and insights to help you stay on top of the space industry.